This demonstration page uses our WeatherBlox Daily Observations layout. Learn more.

Left ArrowRight Arrow

Hourly Observations for September 30, 2018

Temp ( °F °C ) Dew Point ( °F °C ) Humidity (%) Winds ( mph kmh ) Pressure ( in mb ) Visibility ( mi km ) Precip ( " mm )
12:53 am 00:53 Cloudy 51 10.6 50 10 96 96 ENE 6 9 30.11 1020 9 14 0.00 0.00
1:53 am 01:53 Cloudy 51 10.6 50 10 96 96 NE 8 13 30.10 1019 7 11 0.00 0.00
2:53 am 02:53 Cloudy 51 10.6 50 10 96 96 ENE 8 13 30.11 1020 8 13 0.00 0.00
3:49 am 03:49 Cloudy with Mist and Fog 50 10 48 9 94 94 NE 10 17 30.12 1020 3 4 0.00 0.00
3:53 am 03:53 Cloudy with Mist and Fog 50 10 49 9.4 96 96 NE 10 17 30.12 1020 3 4 0.00 0.00
4:02 am 04:02 Cloudy with Mist and Fog 50 10 48 9 94 94 NE 9 15 30.12 1020 2 3 0.00 0.00
4:37 am 04:37 Cloudy with Mist and Fog 50 10 49 9.4 96 96 NE 10 17 30.12 1020 3 4 0.00 0.00
4:53 am 04:53 Cloudy with Mist and Fog 50 10 49 9.4 96 96 NE 10 17 30.13 1020 3 5 0.00 0.00
5:12 am 05:12 Cloudy with Mist and Fog 48 9 48 9 100 100 ENE 10 17 30.12 1020 2 3 0.00 0.00
5:46 am 05:46 Cloudy with Mist and Fog 48 9 48 9 100 100 ENE 10 17 30.12 1020 2 3 0.00 0.00
5:53 am 05:53 Cloudy with Mist and Fog 49 9.4 48 8.9 97 97 ENE 10 17 30.15 1021 3 4 0.00 0.00
6:53 am 06:53 Cloudy with Mist and Fog 49 9.4 48 8.9 97 97 NE 13 20 30.16 1022 2 3 0.00 0.00
7:53 am 07:53 Cloudy with Mist and Fog 49 9.4 48 8.9 97 97 NE 14 22 30.17 1022 3 5 0.00 0.00
8:11 am 08:11 Cloudy with Light Rain 48 8.9 47 8.3 96 96 ENE 13 20 30.15 1021 3 4 0.00 0.03
8:31 am 08:31 Cloudy with Mist and Fog 48 8.9 47 8.3 96 96 NE 14 22 30.18 1022 3 5 0.00 0.03
8:47 am 08:47 Cloudy with Mist and Fog 48 9 46 8 94 94 NE 13 20 30.18 1022 3 4 0.00 0.03
8:53 am 08:53 Cloudy with Mist and Fog 48 8.9 47 8.3 96 96 NE 13 20 30.18 1022 3 4 0.00 0.03
9:19 am 09:19 Cloudy with Mist and Fog 48 8.9 47 8.3 96 96 NE 13 20 30.18 1022 3 5 0.00 0.00
9:23 am 09:23 Cloudy with Mist and Fog 48 8.9 47 8.3 96 96 NE 12 19 30.18 1022 3 4 0.00 0.00
9:32 am 09:32 Cloudy with Light Rain 48 9 46 8 94 94 NE 15 24 30.18 1022 2 2 0.00 0.00
9:53 am 09:53 Cloudy with Light Rain 48 8.9 47 8.3 96 96 NE 13 20 30.20 1023 2 3 0.00 0.03
10:03 am 10:03 Cloudy with Light Rain 48 8.9 47 8.3 96 96 NE 12 19 30.18 1022 2 3 0.01 0.25
10:18 am 10:18 Cloudy with Light Rain 48 9 46 8 94 94 NE 17 28 30.18 1022 2 3 0.00 0.00
10:29 am 10:29 Cloudy with Light Rain 48 8.9 47 8.3 96 96 NE 16 26 30.18 1022 3 5 0.01 0.25
10:42 am 10:42 Cloudy with Light Rain 48 9 46 8 94 94 NE 15 24 30.18 1022 2 3 0.00 0.00
10:51 am 10:51 Cloudy with Light Rain 48 9 46 8 94 94 NE 15 24 30.18 1022 2 3 0.01 0.25
10:53 am 10:53 Cloudy with Light Rain 48 8.9 47 8.3 96 96 NE 15 24 30.20 1023 2 3 0.01 0.25
11:13 am 11:13 Cloudy with Mist and Fog 48 9 46 8 94 94 NE 17 28 30.18 1022 3 4 0.00 0.00
11:22 am 11:22 Cloudy with Mist and Fog 48 9 46 8 94 94 NE 16 26 30.18 1022 4 6 0.00 0.00
11:32 am 11:32 Cloudy with Mist and Fog 48 9 46 8 94 94 NE 14 22 30.18 1022 3 4 0.00 0.00
11:41 am 11:41 Cloudy with Light Rain 49 9.4 47 8.3 93 93 NE 15 24 30.21 1023 3 5 0.00 0.03
11:53 am 11:53 Cloudy with Light Rain 49 9.4 47 8.3 93 93 NE 14 22 30.20 1023 3 5 0.00 0.03
12:00 pm 12:00 Cloudy with Mist and Fog 48 9 46 8 94 94 NE 13 20 30.18 1022 3 4 0.00 0.00
12:12 pm 12:12 Cloudy with Light Rain 49 9.4 47 8.3 93 93 NE 13 20 30.18 1022 2 2 0.01 0.25
12:21 pm 12:21 Cloudy with Light Rain 48 9 46 8 94 94 NE 14 22 30.18 1022 3 5 0.00 0.00
12:27 pm 12:27 Cloudy with Light Rain 49 9.4 48 8.9 97 97 NE 12 19 30.18 1022 4 6 0.01 0.25
12:30 pm 12:30 Cloudy with Light Rain 48 9 48 9 100 100 NE 14 22 30.18 1022 4 6 0.00 0.00
12:37 pm 12:37 Cloudy with Mist and Fog 48 9 48 9 100 100 NE 10 17 30.18 1022 5 8 0.00 0.00
12:41 pm 12:41 Cloudy with Mist and Fog 50 10 48 8.9 93 93 NE 13 20 30.18 1022 4 6 0.01 0.25
12:53 pm 12:53 Cloudy with Light Rain 49 9.4 48 8.9 97 97 NE 10 17 30.19 1023 3 4 0.01 0.25
1:07 pm 13:07 Cloudy with Mist and Fog 49 9.4 47 8.3 93 93 NE 13 20 30.18 1022 4 6 0.00 0.03
1:31 pm 13:31 Cloudy with Mist and Fog 50 10 48 8.9 93 93 NE 16 26 30.18 1022 5 8 0.00 0.03
1:42 pm 13:42 Cloudy with Mist and Fog 48 9 48 9 100 100 NE 14 22 30.18 1022 3 5 0.00 0.00
1:49 pm 13:49 Cloudy with Light Rain 48 9 48 9 100 100 NE 15 24 30.15 1021 3 5 0.00 0.03
1:53 pm 13:53 Cloudy with Light Rain 49 9.4 48 8.9 97 97 NE 14 22 30.18 1022 3 5 0.00 0.03
2:40 pm 14:40 Cloudy with Mist and Fog 50 10 48 8.9 93 93 NNE 12 19 30.15 1021 3 5 0.00 0.03
2:51 pm 14:51 Cloudy with Light Rain 50 10 48 9 94 94 NE 12 19 30.15 1021 2 3 0.00 0.03
2:53 pm 14:53 Cloudy with Light Rain 50 10 48 8.9 93 93 NE 15 24 30.16 1022 2 3 0.00 0.03
3:03 pm 15:03 Cloudy with Mist and Fog 50 10 48 8.9 93 93 NNE 13 20 30.15 1021 3 5 0.00 0.03
3:14 pm 15:14 Cloudy with Mist and Fog 50 10 48 9 94 94 NE 14 22 30.15 1021 6 10 0.00 0.00
3:30 pm 15:30 Cloudy with Mist and Fog 50 10 48 9 94 94 NE 10 17 30.15 1021 5 8 0.00 0.00
3:40 pm 15:40 Cloudy with Mist and Fog 48 9 48 9 100 100 NE 13 20 30.15 1021 2 3 0.00 0.00
3:53 pm 15:53 Cloudy with Mist and Fog 49 9.4 48 8.9 97 97 NE 12 19 30.16 1022 2 2 0.00 0.03
4:06 pm 16:06 Cloudy with Mist and Fog 49 9.4 48 8.9 97 97 NNE 14 22 30.15 1021 3 4 0.00 0.00
4:25 pm 16:25 Cloudy with Mist and Fog 48 9 48 9 100 100 NE 12 19 30.15 1021 6 10 0.00 0.00
4:50 pm 16:50 Cloudy with Mist and Fog 48 9 46 8 94 94 NNE 15 24 30.15 1021 2 3 0.00 0.00
4:53 pm 16:53 Cloudy with Mist and Fog 49 9.4 47 8.3 93 93 NNE 16 26 30.16 1021 2 3 0.00 0.00
5:00 pm 17:00 Cloudy with Mist and Fog 49 9.4 47 8.3 93 93 NNE 14 22 30.15 1021 3 5 0.00 0.00
5:41 pm 17:41 Cloudy with Mist and Fog 49 9.4 47 8.3 93 93 NNE 16 26 30.15 1021 3 4 0.00 0.00
5:49 pm 17:49 Cloudy with Mist and Fog 48 9 46 8 94 94 NE 14 22 30.15 1021 6 10 0.00 0.00
5:53 pm 17:53 Cloudy with Mist and Fog 49 9.4 47 8.3 93 93 NNE 14 22 30.16 1021 5 8 0.00 0.00
6:53 pm 18:53 Cloudy 49 9.4 47 8.3 93 93 NE 14 22 30.15 1021 8 13 0.00 0.00
7:02 pm 19:02 Cloudy with Mist and Fog 48 9 46 8 94 94 NE 10 17 30.15 1021 2 3 0.00 0.00
7:07 pm 19:07 Cloudy with Mist and Fog 48 8.9 47 8.3 96 96 NE 10 17 30.15 1021 3 5 0.00 0.00
7:53 pm 19:53 Cloudy 48 8.9 47 8.3 96 96 NE 14 22 30.15 1021 8 13 0.00 0.00
8:38 pm 20:38 Cloudy with Mist and Fog 48 8.9 47 8.3 96 96 NE 15 24 30.15 1021 3 5 0.00 0.00
8:53 pm 20:53 Cloudy with Mist and Fog 48 8.9 47 8.3 96 96 NE 13 20 30.17 1022 3 4 0.00 0.00
9:06 pm 21:06 Cloudy with Mist and Fog 48 8.9 47 8.3 96 96 NE 13 20 30.15 1021 3 5 0.00 0.00
9:13 pm 21:13 Cloudy with Mist and Fog 48 8.9 47 8.3 96 96 NE 14 22 30.15 1021 2 3 0.00 0.00
9:53 pm 21:53 Cloudy with Light Rain 47 8.3 47 8.3 100 100 ENE 12 19 30.18 1022 2 2 0.01 0.25
10:32 pm 22:32 Cloudy with Mist and Fog 47 8.3 47 8.3 100 100 ENE 13 20 30.18 1022 2 3 0.00 0.03
10:43 pm 22:43 Cloudy with Mist and Fog 47 8.3 47 8.3 100 100 ENE 13 20 30.18 1022 2 3 0.01 0.25
10:48 pm 22:48 Cloudy with Mist and Fog 46 8 46 8 100 100 ENE 13 20 30.18 1022 3 4 0.01 0.25
10:53 pm 22:53 Cloudy with Mist and Fog 47 8.3 46 7.8 97 97 ENE 10 17 30.19 1022 3 5 0.01 0.25
11:07 pm 23:07 Cloudy with Mist and Fog 46 8 46 8 100 100 ENE 10 17 30.18 1022 2 3 0.00 0.00
11:22 pm 23:22 Cloudy with Mist and Fog 46 8 46 8 100 100 ENE 7 11 30.18 1022 2 3 0.00 0.00
11:42 pm 23:42 Cloudy with Light Rain 47 8.3 47 8.3 100 100 NE 7 11 30.15 1021 2 3 0.00 0.03
11:46 pm 23:46 Cloudy with Light Rain 47 8.3 47 8.3 100 100 ENE 8 13 30.15 1021 2 3 0.01 0.25
11:53 pm 23:53 Cloudy with Light Rain 47 8.3 47 8.3 100 100 ENE 7 11 30.17 1022 2 3 0.01 0.25

Powered by AerisWeather